Location: Johnson City
(36.3130°N, 82.3540°W)
Time: 19:52:26
(UTC-04:00)

Envisat - Pass Details

Date: 23 February 2019
Orbit: 764 x 766 km, 98.2° (Epoch: 20 March)

Event Time Altitude Azimuth Distance (km) Brightness Sun altitude
Rises 20:17:50 0° 203° (SSW) 3,217 6.4 -24.8°
Reaches altitude 10° 20:20:45 10° 221° (SW) 2,296 5.9 -25.4°
Maximum altitude 20:24:21 19° 266° (W) 1,739 5.6 -26.1°
Drops below altitude 10° 20:27:58 10° 312° (NW) 2,306 6.2 -26.8°
Sets 20:30:55 0° 330° (NNW) 3,237 6.8 -27.4°
